| time (UTC) | temp F | wind direction | speed knots | gust knots | rain 1hr in | rain 24hr in | rain mn in | humidity % | barometer mb |
| 20260902060805 | 83 | 161 | 0.9 | 1.7 | 0.00 | 0.00 | 0.00 | 64 | 1014.5 |
| 20260902060305 | 83 | 158 | 2.6 | 7.0 | 0.00 | 0.00 | 0.00 | 64 | 1014.4 |
| 20260902054805 | 83 | 156 | 3.5 | 7.0 | 0.00 | 0.00 | 0.00 | 64 | 1014.4 |
| 20260902054305 | 83 | 174 | 2.6 | 8.7 | 0.00 | 0.00 | 0.00 | 63 | 1014.4 |
| 20260902053805 | 84 | 169 | 4.3 | 7.8 | 0.00 | 0.00 | 0.00 | 63 | 1014.4 |
| 20260902051805 | 84 | 171 | 4.3 | 8.7 | 0.00 | 0.00 | 0.00 | 61 | 1014.3 |
| 20260902051305 | 84 | 163 | 6.1 | 13.0 | 0.00 | 0.00 | 0.00 | 61 | 1014.3 |
| 20260902050805 | 85 | 157 | 7.8 | 13.9 | 0.00 | 0.00 | 0.00 | 61 | 1014.2 |
| 20260902050305 | 85 | 151 | 6.1 | 13.0 | 0.00 | 0.00 | 0.00 | 60 | 1014.2 |
| 20260902044805 | 85 | 161 | 6.1 | 11.3 | 0.00 | 0.00 | 0.00 | 59 | 1014.3 |
| 20260902043805 | 86 | 151 | 7.8 | 12.2 | 0.00 | 0.00 | 0.00 | 58 | 1014.3 |
| 20260902043305 | 86 | 149 | 7.8 | 12.2 | 0.00 | 0.00 | 0.00 | 57 | 1014.2 |
| 20260902041806 | 86 | 163 | 7.0 | 11.3 | 0.00 | 0.00 | 0.00 | 57 | 1014.2 |
| 20260902041305 | 86 | 157 | 5.2 | 8.7 | 0.00 | 0.00 | 0.00 | 57 | 1014.2 |
| 20260902040805 | 86 | 152 | 6.1 | 8.7 | 0.00 | 0.00 | 0.00 | 58 | 1014.1 |
| 20260902040305 | 86 | 162 | 5.2 | 8.7 | 0.00 | 0.00 | 0.00 | 58 | 1014.0 |
| 20260902034805 | 86 | 154 | 6.1 | 8.7 | 0.00 | 0.00 | 0.00 | 57 | 1014.0 |
| 20260902034305 | 86 | 159 | 6.1 | 7.8 | 0.00 | 0.00 | 0.00 | 56 | 1013.9 |
| 20260902033805 | 86 | 154 | 3.5 | 4.3 | 0.00 | 0.00 | 0.00 | 56 | 1013.8 |
| 20260902033305 | 87 | 150 | 2.6 | 7.0 | 0.00 | 0.00 | 0.00 | 55 | 1013.8 |
| 20260902031805 | 87 | 132 | 2.6 | 7.8 | 0.00 | 0.00 | 0.00 | 54 | 1013.7 |
| 20260902031305 | 88 | 145 | 1.7 | 8.7 | 0.00 | 0.00 | 0.00 | 54 | 1013.6 |
| 20260902030805 | 88 | 153 | 4.3 | 7.8 | 0.00 | 0.00 | 0.00 | 53 | 1013.6 |
| 20260902030305 | 88 | 145 | 6.1 | 10.4 | 0.00 | 0.00 | 0.00 | 53 | 1013.5 |
| 20260902024804 | 88 | 148 | 5.2 | 7.8 | 0.00 | 0.00 | 0.00 | 51 | 1013.1 |
| 20260902024304 | 88 | 149 | 6.1 | 10.4 | 0.00 | 0.00 | 0.00 | 50 | 1013.1 |
| 20260902023805 | 89 | 175 | 4.3 | 8.7 | 0.00 | 0.00 | 0.00 | 49 | 1013.0 |
| 20260902023305 | 89 | 158 | 6.1 | 12.2 | 0.00 | 0.00 | 0.00 | 49 | 1012.9 |
| 20260902021304 | 90 | 150 | 7.8 | 15.6 | 0.00 | 0.00 | 0.00 | 45 | 1012.5 |
| 20260902020804 | 90 | 128 | 5.2 | 12.2 | 0.00 | 0.00 | 0.00 | 44 | 1012.4 |
| 20260902020304 | 90 | 125 | 4.3 | 8.7 | 0.00 | 0.00 | 0.00 | 44 | 1012.4 |
| 20260902014805 | 91 | 130 | 5.2 | 7.8 | 0.00 | 0.00 | 0.00 | 43 | 1012.3 |
| 20260902014305 | 91 | 120 | 4.3 | 8.7 | 0.00 | 0.00 | 0.00 | 43 | 1012.2 |
| 20260902013805 | 91 | 125 | 3.5 | 7.8 | 0.00 | 0.00 | 0.00 | 43 | 1012.2 |
| 20260902013305 | 91 | 121 | 2.6 | 7.0 | 0.00 | 0.00 | 0.00 | 43 | 1012.1 |
| 20260902011805 | 92 | 123 | 3.5 | 7.8 | 0.00 | 0.00 | 0.00 | 42 | 1011.9 |
| 20260902011304 | 92 | 101 | 5.2 | 8.7 | 0.00 | 0.00 | 0.00 | 41 | 1011.8 |
| 20260902010805 | 92 | 117 | 3.5 | 8.7 | 0.00 | 0.00 | 0.00 | 41 | 1011.8 |
| 20260902010305 | 92 | 110 | 1.7 | 8.7 | 0.00 | 0.00 | 0.00 | 41 | 1011.7 |
| 20260902004804 | 93 | 120 | 4.3 | 8.7 | 0.00 | 0.00 | 0.00 | 41 | 1011.7 |
| 20260902004304 | 93 | 129 | 4.3 | 8.7 | 0.00 | 0.00 | 0.00 | 40 | 1011.8 |
| 20260902003804 | 93 | 130 | 5.2 | 8.7 | 0.00 | 0.00 | 0.00 | 40 | 1011.8 |
| 20260902003305 | 93 | 122 | 7.8 | 15.6 | 0.00 | 0.00 | 0.00 | 40 | 1011.9 |
| 20260902001805 | 94 | 127 | 8.7 | 13.9 | 0.00 | 0.00 | 0.00 | 39 | 1012.0 |
| 20260902001304 | 94 | 110 | 5.2 | 10.4 | 0.00 | 0.00 | 0.00 | 39 | 1012.0 |
| 20260902000805 | 95 | 130 | 5.2 | 10.4 | 0.00 | 0.00 | 0.00 | 38 | 1011.9 |
| 20260901234804 | 96 | 115 | 6.1 | 14.8 | 0.00 | 0.00 | 0.00 | 37 | 1011.9 |
| 20260901234305 | 96 | 133 | 5.2 | 13.9 | 0.00 | 0.00 | 0.00 | 36 | 1011.7 |
| 20260901233305 | 96 | 89 | 4.3 | 12.2 | 0.00 | 0.00 | 0.00 | 36 | 1011.7 |
| 20260901231805 | 96 | 88 | 7.8 | 11.3 | 0.00 | 0.00 | 0.00 | 37 | 1011.8 |
| 20260901231305 | 95 | 150 | 1.7 | 8.7 | 0.00 | 0.00 | 0.00 | 38 | 1011.8 |
| 20260901230804 | 95 | 140 | 5.2 | 12.2 | 0.00 | 0.00 | 0.00 | 38 | 1011.8 |
| 20260901230304 | 95 | 134 | 8.7 | 14.8 | 0.00 | 0.00 | 0.00 | 37 | 1011.9 |
| 20260901224805 | 98 | 145 | 6.1 | 12.2 | 0.00 | 0.00 | 0.00 | 34 | 1011.7 |
| 20260901224305 | 98 | 110 | 4.3 | 10.4 | 0.00 | 0.00 | 0.00 | 34 | 1011.7 |
| 20260901223805 | 97 | 77 | 4.3 | 8.7 | 0.00 | 0.00 | 0.00 | 34 | 1011.7 |
| 20260901223305 | 98 | 111 | 6.1 | 10.4 | 0.00 | 0.00 | 0.00 | 34 | 1011.7 |
| 20260901221804 | 97 | 101 | 4.3 | 8.7 | 0.00 | 0.00 | 0.00 | 34 | 1011.9 |
| 20260901221305 | 97 | 109 | 5.2 | 11.3 | 0.00 | 0.00 | 0.00 | 34 | 1011.8 |
| 20260901220805 | 97 | 95 | 3.5 | 11.3 | 0.00 | 0.00 | 0.00 | 34 | 1011.8 |
| 20260901220305 | 98 | 119 | 1.7 | 12.2 | 0.00 | 0.00 | 0.00 | 35 | 1011.8 |
| 20260901213805 | 99 | 157 | 4.3 | 7.8 | 0.00 | 0.00 | 0.00 | 33 | 1011.9 |
| 20260901213305 | 99 | 94 | 4.3 | 13.0 | 0.00 | 0.00 | 0.00 | 33 | 1012.0 |
| 20260901211805 | 98 | 146 | 4.3 | 12.2 | 0.00 | 0.00 | 0.00 | 35 | 1012.0 |
| 20260901211304 | 98 | 162 | 2.6 | 10.4 | 0.00 | 0.00 | 0.00 | 34 | 1012.1 |
| 20260901210305 | 97 | 190 | 2.6 | 14.8 | 0.00 | 0.00 | 0.00 | 35 | 1012.3 |
| 20260901204304 | 98 | 80 | 4.3 | 10.4 | 0.00 | 0.00 | 0.00 | 35 | 1012.7 |
| 20260901203805 | 97 | 119 | 7.0 | 12.2 | 0.00 | 0.00 | 0.00 | 36 | 1012.7 |
| 20260901203305 | 97 | 193 | 4.3 | 13.9 | 0.00 | 0.00 | 0.00 | 37 | 1012.7 |
| 20260901201804 | 97 | 155 | 11.3 | 14.8 | 0.00 | 0.00 | 0.00 | 38 | 1012.9 |
| 20260901201304 | 97 | 112 | 5.2 | 10.4 | 0.00 | 0.00 | 0.00 | 37 | 1013.1 |
| 20260901200304 | 98 | 37 | 2.6 | 12.2 | 0.00 | 0.00 | 0.00 | 36 | 1013.3 |
| 20260901194805 | 97 | 152 | 5.2 | 10.4 | 0.00 | 0.00 | 0.00 | 38 | 1013.3 |
| 20260901194304 | 97 | 157 | 7.8 | 13.0 | 0.00 | 0.00 | 0.00 | 38 | 1013.4 |
| 20260901193804 | 96 | 159 | 4.3 | 13.9 | 0.00 | 0.00 | 0.00 | 39 | 1013.5 |
| 20260901193304 | 96 | 153 | 5.2 | 14.8 | 0.00 | 0.00 | 0.00 | 39 | 1013.5 |
| 20260901191305 | 96 | 167 | 9.6 | 14.8 | 0.00 | 0.00 | 0.00 | 39 | 1013.8 |
| 20260901184806 | 96 | 94 | 6.1 | 13.0 | 0.00 | 0.00 | 0.00 | 40 | 1014.2 |
| 20260901184304 | 95 | 167 | 6.1 | 15.6 | 0.00 | 0.00 | 0.00 | 41 | 1014.3 |
| 20260901183305 | 95 | 145 | 8.7 | 13.9 | 0.00 | 0.00 | 0.00 | 41 | 1014.6 |
| 20260901181804 | 94 | 187 | 4.3 | 13.9 | 0.00 | 0.00 | 0.00 | 43 | 1014.8 |
| 20260901181305 | 94 | 127 | 5.2 | 11.3 | 0.00 | 0.00 | 0.00 | 43 | 1014.8 |
| 20260901180805 | 94 | 127 | 5.2 | 14.8 | 0.00 | 0.00 | 0.00 | 44 | 1015.0 |
| 20260901180305 | 94 | 156 | 7.8 | 17.4 | 0.00 | 0.00 | 0.00 | 44 | 1015.0 |
| 20260901174804 | 93 | 126 | 3.5 | 13.0 | 0.00 | 0.00 | 0.00 | 46 | 1015.2 |
| 20260901174305 | 93 | 157 | 7.8 | 13.0 | 0.00 | 0.00 | 0.00 | 46 | 1015.4 |
| 20260901173805 | 93 | 159 | 5.2 | 10.4 | 0.00 | 0.00 | 0.00 | 47 | 1015.4 |
| 20260901173304 | 93 | 145 | 7.0 | 12.2 | 0.00 | 0.00 | 0.00 | 47 | 1015.4 |
| 20260901171805 | 92 | 155 | 6.1 | 12.2 | 0.00 | 0.00 | 0.00 | 48 | 1015.7 |
| 20260901170804 | 92 | 166 | 7.0 | 12.2 | 0.00 | 0.00 | 0.00 | 49 | 1015.8 |
| 20260901170304 | 92 | 155 | 7.0 | 13.0 | 0.00 | 0.00 | 0.00 | 49 | 1015.9 |
| 20260901164805 | 91 | 152 | 8.7 | 12.2 | 0.00 | 0.00 | 0.00 | 47 | 1016.0 |
| 20260901163805 | 91 | 110 | 5.2 | 7.8 | 0.00 | 0.00 | 0.00 | 45 | 1016.1 |
| 20260901163305 | 91 | 175 | 4.3 | 11.3 | 0.00 | 0.00 | 0.00 | 46 | 1016.1 |
| 20260901161805 | 91 | 262 | 1.7 | 4.3 | 0.00 | 0.00 | 0.00 | 53 | 1016.2 |
| 20260901160805 | 89 | 130 | 2.6 | 7.0 | 0.00 | 0.00 | 0.00 | 56 | 1016.3 |
| 20260901160304 | 89 | 148 | 3.5 | 8.7 | 0.00 | 0.00 | 0.00 | 56 | 1016.3 |
| 20260901154805 | 87 | 190 | 1.7 | 4.3 | 0.00 | 0.00 | 0.00 | 57 | 1016.3 |
| 20260901154304 | 88 | 130 | 5.2 | 7.8 | 0.00 | 0.00 | 0.00 | 57 | 1016.3 |
| 20260901153805 | 88 | 168 | 2.6 | 5.2 | 0.00 | 0.00 | 0.00 | 58 | 1016.3 |
| 20260901153305 | 88 | 238 | 1.7 | 5.2 | 0.00 | 0.00 | 0.00 | 59 | 1016.3 |
| 20260901151805 | 86 | 319 | 2.6 | 4.3 | 0.00 | 0.00 | 0.00 | 62 | 1016.3 |
| 20260901151305 | 86 | 323 | 1.7 | 4.3 | 0.00 | 0.00 | 0.00 | 63 | 1016.4 |
| 20260901150305 | 85 | 186 | 0.9 | 5.2 | 0.00 | 0.00 | 0.00 | 68 | 1016.4 |
| 20260901144805 | 83 | 258 | 0.9 | 2.6 | 0.00 | 0.00 | 0.00 | 70 | 1016.5 |
| 20260901144305 | 83 | 300 | 1.7 | 4.3 | 0.00 | 0.00 | 0.00 | 70 | 1016.5 |
| 20260901143804 | 83 | 328 | 2.6 | 4.3 | 0.00 | 0.00 | 0.00 | 71 | 1016.5 |
| 20260901143304 | 82 | 300 | 0.0 | 2.6 | 0.00 | 0.00 | 0.00 | 72 | 1016.5 |
| 20260901141805 | 82 | 266 | 1.7 | 2.6 | 0.00 | 0.00 | 0.00 | 71 | 1016.7 |
| 20260901141305 | 82 | 288 | 0.9 | 1.7 | 0.00 | 0.00 | 0.00 | 72 | 1016.7 |
| 20260901140804 | 82 | 294 | 0.0 | 0.9 | 0.00 | 0.00 | 0.00 | 73 | 1016.7 |
| 20260901134804 | 80 | 146 | 0.0 | 1.7 | 0.00 | 0.00 | 0.00 | 74 | 1016.6 |
| 20260901133804 | 79 | 163 | 0.0 | 0.0 | 0.00 | 0.00 | 0.00 | 76 | 1016.5 |
| 20260901131805 | 78 | 163 | 0.0 | 0.0 | 0.00 | 0.00 | 0.00 | 78 | 1016.3 |
| 20260901131305 | 77 | 163 | 0.0 | 0.0 | 0.00 | 0.00 | 0.00 | 79 | 1016.3 |
| 20260901130805 | 76 | 163 | 0.0 | 0.0 | 0.00 | 0.00 | 0.00 | 79 | 1016.2 |
| 20260901124305 | 75 | 163 | 0.0 | 0.9 | 0.00 | 0.00 | 0.00 | 79 | 1015.8 |
| 20260901123805 | 75 | 163 | 0.0 | 0.9 | 0.00 | 0.00 | 0.00 | 79 | 1015.8 |
| 20260901123304 | 75 | 163 | 0.0 | 0.0 | 0.00 | 0.00 | 0.00 | 79 | 1015.8 |
| 20260901121805 | 75 | 163 | 0.0 | 0.0 | 0.00 | 0.00 | 0.00 | 79 | 1015.7 |
| 20260901121304 | 75 | 163 | 0.0 | 0.0 | 0.00 | 0.00 | 0.00 | 79 | 1015.7 |
| 20260901120805 | 75 | 163 | 0.0 | 0.0 | 0.00 | 0.00 | 0.00 | 79 | 1015.6 |
| 20260901114805 | 75 | 163 | 0.0 | 0.0 | 0.00 | 0.00 | 0.00 | 79 | 1015.7 |
| 20260901114305 | 75 | 163 | 0.0 | 0.9 | 0.00 | 0.00 | 0.00 | 79 | 1015.7 |
| 20260901113804 | 75 | 163 | 0.0 | 0.0 | 0.00 | 0.00 | 0.00 | 78 | 1015.7 |
| 20260901113304 | 75 | 163 | 0.0 | 0.0 | 0.00 | 0.00 | 0.00 | 78 | 1015.7 |
| 20260901111805 | 75 | 163 | 0.0 | 0.0 | 0.00 | 0.00 | 0.00 | 78 | 1015.5 |
| 20260901110805 | 76 | 163 | 0.0 | 0.9 | 0.00 | 0.00 | 0.00 | 78 | 1015.4 |
| 20260901104805 | 76 | 163 | 0.9 | 1.7 | 0.00 | 0.00 | 0.00 | 77 | 1015.6 |
| 20260901104304 | 76 | 163 | 0.0 | 0.9 | 0.00 | 0.00 | 0.00 | 77 | 1015.5 |
| 20260901103805 | 76 | 163 | 0.0 | 0.0 | 0.00 | 0.00 | 0.00 | 76 | 1015.4 |
| 20260901103305 | 76 | 163 | 0.0 | 0.9 | 0.00 | 0.00 | 0.00 | 76 | 1015.5 |
| 20260901101805 | 77 | 163 | 0.9 | 1.7 | 0.00 | 0.00 | 0.00 | 76 | 1015.4 |
| 20260901101304 | 77 | 163 | 2.6 | 7.8 | 0.00 | 0.00 | 0.00 | 76 | 1015.4 |
| 20260901094804 | 77 | 174 | 1.7 | 5.2 | 0.00 | 0.00 | 0.00 | 75 | 1015.5 |
| 20260901094305 | 77 | 174 | 2.6 | 5.2 | 0.00 | 0.00 | 0.00 | 75 | 1015.5 |
| 20260901093805 | 77 | 168 | 1.7 | 4.3 | 0.00 | 0.00 | 0.00 | 75 | 1015.5 |
| 20260901093304 | 77 | 168 | 0.9 | 4.3 | 0.00 | 0.00 | 0.00 | 75 | 1015.5 |
| 20260901091804 | 78 | 168 | 0.9 | 1.7 | 0.00 | 0.00 | 0.00 | 74 | 1015.6 |
| 20260901091305 | 78 | 168 | 0.0 | 1.7 | 0.00 | 0.00 | 0.00 | 74 | 1015.6 |
| 20260901090304 | 78 | 168 | 1.7 | 7.0 | 0.00 | 0.00 | 0.00 | 74 | 1015.7 |
| 20260901084804 | 79 | 169 | 2.6 | 5.2 | 0.00 | 0.00 | 0.00 | 73 | 1015.5 |
| 20260901084305 | 79 | 167 | 3.5 | 5.2 | 0.00 | 0.00 | 0.00 | 73 | 1015.4 |
| 20260901083805 | 79 | 172 | 2.6 | 7.0 | 0.00 | 0.00 | 0.00 | 73 | 1015.4 |
| 20260901083305 | 79 | 164 | 2.6 | 7.8 | 0.00 | 0.00 | 0.00 | 72 | 1015.4 |
| 20260901081804 | 79 | 152 | 4.3 | 10.4 | 0.00 | 0.00 | 0.00 | 71 | 1015.3 |
| 20260901081305 | 79 | 154 | 3.5 | 8.7 | 0.00 | 0.00 | 0.00 | 70 | 1015.3 |
| 20260901080805 | 80 | 157 | 5.2 | 10.4 | 0.00 | 0.00 | 0.00 | 70 | 1015.3 |
| 20260901080305 | 80 | 155 | 7.0 | 10.4 | 0.00 | 0.00 | 0.00 | 70 | 1015.2 |
| 20260901074805 | 80 | 177 | 3.5 | 7.8 | 0.00 | 0.00 | 0.00 | 70 | 1015.3 |
| 20260901074305 | 80 | 163 | 4.3 | 7.8 | 0.00 | 0.00 | 0.00 | 69 | 1015.4 |
| 20260901073304 | 80 | 161 | 4.3 | 7.8 | 0.00 | 0.00 | 0.00 | 69 | 1015.5 |
| 20260901071305 | 81 | 155 | 5.2 | 10.4 | 0.00 | 0.00 | 0.00 | 68 | 1015.6 |
| 20260901070805 | 81 | 176 | 2.6 | 7.8 | 0.00 | 0.00 | 0.00 | 68 | 1015.5 |
| 20260901070304 | 81 | 157 | 4.3 | 10.4 | 0.00 | 0.00 | 0.00 | 67 | 1015.5 |
| 20260901064804 | 82 | 151 | 6.1 | 10.4 | 0.00 | 0.00 | 0.00 | 66 | 1015.4 |
| 20260901064304 | 82 | 153 | 5.2 | 11.3 | 0.00 | 0.00 | 0.00 | 66 | 1015.4 |
| 20260901063805 | 82 | 150 | 6.1 | 11.3 | 0.00 | 0.00 | 0.00 | 66 | 1015.4 |
| 20260901063305 | 82 | 151 | 5.2 | 11.3 | 0.00 | 0.00 | 0.00 | 65 | 1015.2 |
| 20260901061304 | 83 | 168 | 6.1 | 10.4 | 0.00 | 0.00 | 0.00 | 64 | 1015.0 |